Time,TemperatureF,DewpointF,PressureIn,WindDirection,WindDirectionDegrees,WindSpeedMPH,WindSpeedGustMPH,Humidity,HourlyPrecipIn,Conditions,Clouds,dailyrainin,SoftwareType,DateUTC
2013-03-27 00:00:00,31.1,24.7,30.33,WNW,292,0.0,0.0,77,0.00,RA,,0.00,WeatherDisplay:10.37,2013-03-27 05:00:00,
2013-03-27 00:05:00,30.9,24.5,30.33,WNW,292,0.0,0.0,77,0.00,RA,,0.00,WeatherDisplay:10.37,2013-03-27 05:05:00,
2013-03-27 00:10:00,30.8,24.7,30.33,WNW,292,0.0,0.0,78,0.00,CLR,,0.00,WeatherDisplay:10.37,2013-03-27 05:10:00,
2013-03-27 00:15:00,30.6,24.6,30.33,WNW,292,0.0,0.0,78,0.00,CLR,,0.00,WeatherDisplay:10.37,2013-03-27 05:15:00,
2013-03-27 00:20:00,30.4,24.4,30.33,WNW,292,0.0,0.0,78,0.00,CLR,,0.00,WeatherDisplay:10.37,2013-03-27 05:20:00,
2013-03-27 00:25:00,30.2,24.5,30.33,WNW,292,0.0,0.0,79,0.00,CLR,,0.00,WeatherDisplay:10.37,2013-03-27 05:25:00,
2013-03-27 00:30:00,30.2,24.5,30.33,WNW,292,0.0,0.0,79,0.00,CLR,,0.00,WeatherDisplay:10.37,2013-03-27 05:30:00,
2013-03-27 00:35:00,30.1,24.7,30.33,WNW,292,0.0,0.0,80,0.00,CLR,,0.00,WeatherDisplay:10.37,2013-03-27 05:35:00,
2013-03-27 00:40:00,30.1,24.7,30.33,WNW,292,0.0,0.0,80,0.00,CLR,,0.00,WeatherDisplay:10.37,2013-03-27 05:40:00,
2013-03-27 00:45:00,29.9,24.5,30.33,WNW,292,0.0,0.0,80,0.00,CLR,,0.00,WeatherDisplay:10.37,2013-03-27 05:45:00,
2013-03-27 00:50:00,29.8,24.4,30.33,WNW,292,0.0,0.0,80,0.00,CLR,,0.00,WeatherDisplay:10.37,2013-03-27 05:50:00,
2013-03-27 00:55:00,29.7,24.3,30.33,WNW,292,0.0,0.0,80,0.00,CLR,,0.00,WeatherDisplay:10.37,2013-03-27 05:55:00,
2013-03-27 01:00:00,29.5,24.4,30.33,WNW,292,0.0,0.0,81,0.00,CLR,,0.00,WeatherDisplay:10.37,2013-03-27 06:00:00,
2013-03-27 01:05:00,29.4,24.3,30.33,WNW,292,0.0,0.0,81,0.00,CLR,,0.00,WeatherDisplay:10.37,2013-03-27 06:05:00,
2013-03-27 01:10:00,29.2,24.4,30.33,WNW,292,0.0,0.0,82,0.00,CLR,,0.00,WeatherDisplay:10.37,2013-03-27 06:10:00,
2013-03-27 01:15:00,29.1,24.3,30.33,WNW,292,0.0,0.0,82,0.00,CLR,,0.00,WeatherDisplay:10.37,2013-03-27 06:15:00,
2013-03-27 01:20:00,29.0,24.2,30.33,WNW,292,0.0,0.0,82,0.00,CLR,,0.00,WeatherDisplay:10.37,2013-03-27 06:20:00,
2013-03-27 01:25:00,28.8,24.0,30.33,WNW,292,0.0,0.0,82,0.00,CLR,,0.00,WeatherDisplay:10.37,2013-03-27 06:25:00,
2013-03-27 01:30:00,28.7,23.9,30.33,WNW,292,0.0,0.0,82,0.00,CLR,,0.00,WeatherDisplay:10.37,2013-03-27 06:30:00,
2013-03-27 01:35:00,28.5,24.0,30.33,WNW,292,0.0,0.0,83,0.00,CLR,,0.00,WeatherDisplay:10.37,2013-03-27 06:35:00,
2013-03-27 01:40:00,28.4,23.9,30.33,WNW,292,0.0,0.0,83,0.00,CLR,,0.00,WeatherDisplay:10.37,2013-03-27 06:40:00,
2013-03-27 01:45:00,28.3,23.8,30.33,WNW,292,0.0,0.0,83,0.00,CLR,,0.00,WeatherDisplay:10.37,2013-03-27 06:45:00,
2013-03-27 01:50:00,28.3,24.1,30.33,WNW,292,0.0,0.0,84,0.00,CLR,,0.00,WeatherDisplay:10.37,2013-03-27 06:50:00,
2013-03-27 01:55:00,28.2,23.7,30.33,WNW,292,0.0,0.0,83,0.00,CLR,,0.00,WeatherDisplay:10.37,2013-03-27 06:55:00,
2013-03-27 02:00:00,28.1,23.9,30.33,WNW,292,0.0,0.0,84,0.00,CLR,,0.00,WeatherDisplay:10.37,2013-03-27 07:00:00,
2013-03-27 02:05:00,28.1,23.9,30.32,WNW,292,0.0,0.0,84,0.00,CLR,,0.00,WeatherDisplay:10.37,2013-03-27 07:05:00,
2013-03-27 02:10:00,28.0,23.8,30.32,WNW,292,0.0,0.0,84,0.00,CLR,,0.00,WeatherDisplay:10.37,2013-03-27 07:10:00,
2013-03-27 02:15:00,28.0,23.8,30.32,WNW,292,0.0,0.0,84,0.00,CLR,,0.00,WeatherDisplay:10.37,2013-03-27 07:15:00,
2013-03-27 02:20:00,28.0,23.8,30.32,WNW,292,0.0,0.0,84,0.00,CLR,,0.00,WeatherDisplay:10.37,2013-03-27 07:20:00,
2013-03-27 02:25:00,27.9,23.7,30.32,WNW,292,0.0,0.0,84,0.00,CLR,,0.00,WeatherDisplay:10.37,2013-03-27 07:25:00,
2013-03-27 02:30:00,27.9,23.7,30.32,WNW,292,0.0,0.0,84,0.00,CLR,,0.00,WeatherDisplay:10.37,2013-03-27 07:30:00,
2013-03-27 02:35:00,28.0,23.8,30.32,WNW,292,0.0,0.0,84,0.00,CLR,,0.00,WeatherDisplay:10.37,2013-03-27 07:35:00,
2013-03-27 02:40:00,28.0,23.8,30.32,WNW,292,0.0,0.0,84,0.00,CLR,,0.00,WeatherDisplay:10.37,2013-03-27 07:40:00,
2013-03-27 02:45:00,28.0,23.8,30.33,WNW,292,0.0,0.0,84,0.00,CLR,,0.00,WeatherDisplay:10.37,2013-03-27 07:45:00,
2013-03-27 02:50:00,28.0,23.8,30.32,WNW,292,0.0,0.0,84,0.00,CLR,,0.00,WeatherDisplay:10.37,2013-03-27 07:50:00,
2013-03-27 02:55:00,28.0,23.8,30.33,WNW,292,0.0,0.0,84,0.00,CLR,,0.00,WeatherDisplay:10.37,2013-03-27 07:55:00,
2013-03-27 03:00:00,28.1,23.9,30.33,WNW,292,0.0,0.0,84,0.00,CLR,,0.00,WeatherDisplay:10.37,2013-03-27 08:00:00,
2013-03-27 03:05:00,28.1,23.9,30.32,WNW,292,0.0,0.0,84,0.00,CLR,,0.00,WeatherDisplay:10.37,2013-03-27 08:05:00,
2013-03-27 03:10:00,28.3,24.1,30.33,WNW,292,0.0,0.0,84,0.00,CLR,,0.00,WeatherDisplay:10.37,2013-03-27 08:10:00,
2013-03-27 03:15:00,28.5,24.0,30.33,WNW,292,0.0,0.0,83,0.00,CLR,,0.00,WeatherDisplay:10.37,2013-03-27 08:15:00,
2013-03-27 03:20:00,28.6,24.1,30.33,WNW,292,0.0,0.0,83,0.00,CLR,,0.00,WeatherDisplay:10.37,2013-03-27 08:20:00,
2013-03-27 03:25:00,28.6,24.1,30.33,WNW,292,0.0,0.0,83,0.00,CLR,,0.00,WeatherDisplay:10.37,2013-03-27 08:25:00,
2013-03-27 03:30:00,28.6,23.8,30.33,WNW,292,0.0,0.0,82,0.00,CLR,,0.00,WeatherDisplay:10.37,2013-03-27 08:30:00,
2013-03-27 03:35:00,28.5,23.7,30.33,WNW,292,0.0,0.0,82,0.00,CLR,,0.00,WeatherDisplay:10.37,2013-03-27 08:35:00,
2013-03-27 03:40:00,28.4,23.9,30.33,WNW,292,0.0,0.0,83,0.00,CLR,,0.00,WeatherDisplay:10.37,2013-03-27 08:40:00,
2013-03-27 03:45:00,28.3,23.8,30.33,WNW,292,0.0,0.0,83,0.00,CLR,,0.00,WeatherDisplay:10.37,2013-03-27 08:45:00,
2013-03-27 03:50:00,28.2,23.7,30.33,WNW,292,0.0,0.0,83,0.00,CLR,,0.00,WeatherDisplay:10.37,2013-03-27 08:50:00,
2013-03-27 03:56:00,28.1,23.9,30.33,WNW,292,0.0,0.0,84,0.00,CLR,,0.00,WeatherDisplay:10.37,2013-03-27 08:56:00,
2013-03-27 04:01:00,28.0,23.8,30.33,WNW,292,0.0,0.0,84,0.00,CLR,,0.00,WeatherDisplay:10.37,2013-03-27 09:01:00,
2013-03-27 04:06:00,28.0,23.8,30.33,WNW,292,0.0,0.0,84,0.00,CLR,,0.00,WeatherDisplay:10.37,2013-03-27 09:06:00,
2013-03-27 04:11:00,28.1,23.9,30.32,WNW,292,0.0,0.0,84,0.00,CLR,,0.00,WeatherDisplay:10.37,2013-03-27 09:11:00,
2013-03-27 04:16:00,28.3,24.1,30.32,WNW,292,0.0,0.0,84,0.00,CLR,,0.00,WeatherDisplay:10.37,2013-03-27 09:16:00,
2013-03-27 04:21:00,28.3,24.1,30.32,WNW,292,0.0,0.0,84,0.00,CLR,,0.00,WeatherDisplay:10.37,2013-03-27 09:21:00,
2013-03-27 04:26:00,28.2,24.0,30.32,WNW,292,0.0,0.0,84,0.00,CLR,,0.00,WeatherDisplay:10.37,2013-03-27 09:26:00,
2013-03-27 04:31:00,28.1,23.9,30.33,WNW,292,0.0,0.0,84,0.00,CLR,,0.00,WeatherDisplay:10.37,2013-03-27 09:31:00,
2013-03-27 04:36:00,27.9,23.4,30.33,WNW,292,0.0,0.0,83,0.00,CLR,,0.00,WeatherDisplay:10.37,2013-03-27 09:36:00,
2013-03-27 04:41:00,27.6,23.4,30.33,WNW,292,0.0,0.0,84,0.00,CLR,,0.00,WeatherDisplay:10.37,2013-03-27 09:41:00,
2013-03-27 04:46:00,27.5,23.3,30.33,WNW,292,0.0,0.0,84,0.00,CLR,,0.00,WeatherDisplay:10.37,2013-03-27 09:46:00,
2013-03-27 04:51:00,27.3,23.1,30.33,WNW,292,0.0,0.0,84,0.00,CLR,,0.00,WeatherDisplay:10.37,2013-03-27 09:51:00,
2013-03-27 04:56:00,27.2,23.0,30.33,WNW,292,0.0,0.0,84,0.00,CLR,,0.00,WeatherDisplay:10.37,2013-03-27 09:56:00,
2013-03-27 05:01:00,27.0,22.8,30.33,WNW,292,0.0,0.0,84,0.00,CLR,,0.00,WeatherDisplay:10.37,2013-03-27 10:01:00,
2013-03-27 05:06:00,26.9,23.0,30.33,WNW,292,0.0,0.0,85,0.00,CLR,,0.00,WeatherDisplay:10.37,2013-03-27 10:06:00,
2013-03-27 05:11:00,26.8,22.9,30.33,WNW,292,0.0,0.0,85,0.00,CLR,,0.00,WeatherDisplay:10.37,2013-03-27 10:11:00,
2013-03-27 05:16:00,27.1,23.5,30.33,WNW,292,0.0,0.0,86,0.00,CLR,,0.00,WeatherDisplay:10.37,2013-03-27 10:16:00,
2013-03-27 05:21:00,27.6,24.0,30.33,WNW,292,0.0,0.0,86,0.00,CLR,,0.00,WeatherDisplay:10.37,2013-03-27 10:21:00,
2013-03-27 05:26:00,28.1,24.5,30.33,WNW,292,0.0,0.0,86,0.00,CLR,,0.00,WeatherDisplay:10.37,2013-03-27 10:26:00,
2013-03-27 05:31:00,28.2,24.3,30.33,WNW,292,0.0,0.0,85,0.00,CLR,,0.00,WeatherDisplay:10.37,2013-03-27 10:31:00,
2013-03-27 05:37:00,28.3,24.4,30.33,WNW,292,0.0,0.0,85,0.00,CLR,,0.00,WeatherDisplay:10.37,2013-03-27 10:37:00,
2013-03-27 05:42:00,28.4,24.5,30.33,WNW,292,0.0,0.0,85,0.00,CLR,,0.00,WeatherDisplay:10.37,2013-03-27 10:42:00,
2013-03-27 05:47:00,28.6,24.4,30.33,WNW,292,0.0,0.0,84,0.00,CLR,,0.00,WeatherDisplay:10.37,2013-03-27 10:47:00,
2013-03-27 05:52:00,28.6,24.4,30.33,WNW,292,0.0,0.0,84,0.00,CLR,,0.00,WeatherDisplay:10.37,2013-03-27 10:52:00,
2013-03-27 05:57:00,28.5,24.0,30.33,WNW,292,0.0,0.0,83,0.00,CLR,,0.00,WeatherDisplay:10.37,2013-03-27 10:57:00,
2013-03-27 06:02:00,28.3,23.8,30.34,WNW,292,0.0,0.0,83,0.00,CLR,,0.00,WeatherDisplay:10.37,2013-03-27 11:02:00,
2013-03-27 06:07:00,28.1,23.6,30.34,WNW,292,0.0,0.0,83,0.00,CLR,,0.00,WeatherDisplay:10.37,2013-03-27 11:07:00,
2013-03-27 06:12:00,27.8,23.3,30.34,WNW,292,0.0,0.0,83,0.00,CLR,,0.00,WeatherDisplay:10.37,2013-03-27 11:12:00,
2013-03-27 06:17:00,27.6,23.1,30.34,WNW,292,0.0,0.0,83,0.00,CLR,,0.00,WeatherDisplay:10.37,2013-03-27 11:17:00,
2013-03-27 06:22:00,27.4,23.2,30.34,WNW,292,0.0,0.0,84,0.00,CLR,,0.00,WeatherDisplay:10.37,2013-03-27 11:22:00,
2013-03-27 06:27:00,27.2,23.0,30.35,WNW,292,0.0,0.0,84,0.00,CLR,,0.00,WeatherDisplay:10.37,2013-03-27 11:27:00,
2013-03-27 06:32:00,27.1,22.9,30.35,WNW,292,0.0,0.0,84,0.00,CLR,,0.00,WeatherDisplay:10.37,2013-03-27 11:32:00,
2013-03-27 06:37:00,27.0,23.1,30.35,WNW,292,0.0,0.0,85,0.00,CLR,,0.00,WeatherDisplay:10.37,2013-03-27 11:37:00,
2013-03-27 06:42:00,27.0,23.1,30.35,WNW,292,0.0,0.0,85,0.00,CLR,,0.00,WeatherDisplay:10.37,2013-03-27 11:42:00,
2013-03-27 06:47:00,26.9,23.0,30.35,WNW,292,0.0,0.0,85,0.00,CLR,,0.00,WeatherDisplay:10.37,2013-03-27 11:47:00,
2013-03-27 06:52:00,26.9,23.0,30.35,WNW,292,0.0,0.0,85,0.00,CLR,,0.00,WeatherDisplay:10.37,2013-03-27 11:52:00,
2013-03-27 06:57:00,26.9,23.3,30.35,WNW,292,0.0,0.0,86,0.00,CLR,,0.00,WeatherDisplay:10.37,2013-03-27 11:57:00,
2013-03-27 07:02:00,27.1,23.5,30.35,WNW,292,0.0,0.0,86,0.00,CLR,,0.00,WeatherDisplay:10.37,2013-03-27 12:02:00,
2013-03-27 07:07:00,27.2,23.6,30.35,WNW,292,0.0,0.0,86,0.00,CLR,,0.00,WeatherDisplay:10.37,2013-03-27 12:07:00,
2013-03-27 07:12:00,27.2,23.6,30.35,WNW,292,0.0,0.0,86,0.00,CLR,,0.00,WeatherDisplay:10.37,2013-03-27 12:12:00,
2013-03-27 07:17:00,27.2,23.3,30.36,WNW,292,0.0,0.0,85,0.00,CLR,,0.00,WeatherDisplay:10.37,2013-03-27 12:17:00,
2013-03-27 07:22:00,27.1,23.2,30.36,WNW,292,0.0,0.0,85,0.00,CLR,,0.00,WeatherDisplay:10.37,2013-03-27 12:22:00,
2013-03-27 07:27:00,27.0,23.4,30.36,WNW,292,0.0,0.0,86,0.00,CLR,,0.00,WeatherDisplay:10.37,2013-03-27 12:27:00,
2013-03-27 07:32:00,27.0,23.4,30.36,WNW,292,0.0,0.0,86,0.00,CLR,,0.00,WeatherDisplay:10.37,2013-03-27 12:32:00,
2013-03-27 07:37:00,27.0,23.4,30.36,WNW,292,0.0,0.0,86,0.00,CLR,,0.00,WeatherDisplay:10.37,2013-03-27 12:37:00,
2013-03-27 07:42:00,27.0,23.4,30.36,WNW,292,0.0,0.0,86,0.00,CLR,,0.00,WeatherDisplay:10.37,2013-03-27 12:42:00,
2013-03-27 07:47:00,27.2,23.8,30.36,WNW,292,0.0,0.0,87,0.00,CLR,,0.00,WeatherDisplay:10.37,2013-03-27 12:47:00,
2013-03-27 07:52:00,27.7,24.6,30.36,WNW,292,0.0,0.0,88,0.00,CLR,,0.00,WeatherDisplay:10.37,2013-03-27 12:52:00,
2013-03-27 07:57:00,28.4,25.3,30.36,WNW,292,0.0,0.0,88,0.00,CLR,,0.00,WeatherDisplay:10.37,2013-03-27 12:57:00,
2013-03-27 08:02:00,28.9,25.8,30.36,WNW,292,0.0,0.0,88,0.00,CLR,,0.00,WeatherDisplay:10.37,2013-03-27 13:02:00,
2013-03-27 08:07:00,29.2,25.8,30.36,WNW,292,0.0,0.0,87,0.00,CLR,,0.00,WeatherDisplay:10.37,2013-03-27 13:07:00,
2013-03-27 08:12:00,29.6,26.5,30.36,WNW,292,0.0,0.0,88,0.00,CLR,,0.00,WeatherDisplay:10.37,2013-03-27 13:12:00,
2013-03-27 08:18:00,29.9,26.8,30.37,WNW,292,0.0,0.0,88,0.00,CLR,,0.00,WeatherDisplay:10.37,2013-03-27 13:18:00,
2013-03-27 08:23:00,30.2,27.1,30.37,WNW,292,0.0,0.0,88,0.00,CLR,,0.00,WeatherDisplay:10.37,2013-03-27 13:23:00,
2013-03-27 08:28:00,30.7,27.6,30.37,WNW,292,0.0,0.0,88,0.00,CLR,,0.00,WeatherDisplay:10.37,2013-03-27 13:28:00,
2013-03-27 08:33:00,31.4,28.0,30.37,WNW,292,0.0,0.0,87,0.00,CLR,,0.00,WeatherDisplay:10.37,2013-03-27 13:33:00,
2013-03-27 08:38:00,32.1,28.4,30.38,WNW,284,0.0,0.0,86,0.00,CLR,,0.00,WeatherDisplay:10.37,2013-03-27 13:38:00,
2013-03-27 08:43:00,33.4,28.8,30.38,ENE,57,0.0,0.0,83,0.00,CLR,,0.00,WeatherDisplay:10.37,2013-03-27 13:43:00,
2013-03-27 08:48:00,34.8,29.3,30.38,ENE,70,0.0,0.0,80,0.00,CLR,,0.00,WeatherDisplay:10.37,2013-03-27 13:48:00,
2013-03-27 08:53:00,36.2,29.0,30.39,ENE,78,1.1,1.1,75,0.00,CLR,,0.00,WeatherDisplay:10.37,2013-03-27 13:53:00,
2013-03-27 08:58:00,37.4,29.2,30.39,East,80,0.0,0.0,72,0.00,CLR,,0.00,WeatherDisplay:10.37,2013-03-27 13:58:00,
2013-03-27 09:03:00,38.5,28.9,30.39,East,82,1.1,0.0,68,0.00,CLR,,0.00,WeatherDisplay:10.37,2013-03-27 14:03:00,
2013-03-27 09:08:00,39.4,28.2,30.39,East,96,2.3,2.3,64,0.00,CLR,,0.00,WeatherDisplay:10.37,2013-03-27 14:08:00,
2013-03-27 09:13:00,39.9,28.7,30.39,East,101,1.1,1.1,64,0.00,CLR,,0.00,WeatherDisplay:10.37,2013-03-27 14:13:00,
2013-03-27 09:18:00,40.3,27.9,30.38,East,83,2.3,2.3,61,0.00,CLR,,0.00,WeatherDisplay:10.37,2013-03-27 14:18:00,
2013-03-27 09:23:00,40.8,28.4,30.38,East,89,1.1,1.1,61,0.00,CLR,,0.00,WeatherDisplay:10.37,2013-03-27 14:23:00,
2013-03-27 09:28:00,41.5,27.8,30.38,East,86,2.3,2.3,58,0.00,CLR,,0.00,WeatherDisplay:10.37,2013-03-27 14:28:00,
2013-03-27 09:33:00,42.2,28.0,30.38,SE,125,3.5,3.5,57,0.00,CLR,,0.00,WeatherDisplay:10.37,2013-03-27 14:33:00,
2013-03-27 09:38:00,42.3,27.7,30.38,SE,143,3.5,3.5,56,0.00,CLR,,0.00,WeatherDisplay:10.37,2013-03-27 14:38:00,
2013-03-27 09:43:00,42.1,27.1,30.38,SSW,212,2.3,2.3,55,0.00,CLR,,0.00,WeatherDisplay:10.37,2013-03-27 14:43:00,
2013-03-27 09:48:00,42.3,28.1,30.38,ESE,115,1.1,0.0,57,0.00,CLR,,0.00,WeatherDisplay:10.37,2013-03-27 14:48:00,
2013-03-27 09:53:00,42.6,28.0,30.38,ESE,119,2.3,2.3,56,0.00,CLR,,0.00,WeatherDisplay:10.37,2013-03-27 14:53:00,
2013-03-27 09:58:00,43.0,28.4,30.38,NNW,341,2.3,2.3,56,0.00,CLR,,0.00,WeatherDisplay:10.37,2013-03-27 14:58:00,
2013-03-27 10:03:00,43.2,27.7,30.38,SSE,157,0.0,0.0,54,0.00,CLR,,0.00,WeatherDisplay:10.37,2013-03-27 15:03:00,
2013-03-27 10:08:00,43.2,28.1,30.38,ESE,112,2.3,2.3,55,0.00,CLR,,0.00,WeatherDisplay:10.37,2013-03-27 15:08:00,
2013-03-27 10:13:00,43.8,28.7,30.38,East,83,1.1,1.1,55,0.00,CLR,,0.00,WeatherDisplay:10.37,2013-03-27 15:13:00,
2013-03-27 10:18:00,44.1,27.1,30.38,ENE,73,0.0,0.0,51,0.00,CLR,,0.00,WeatherDisplay:10.37,2013-03-27 15:18:00,
2013-03-27 10:23:00,44.1,29.4,30.38,SW,232,4.6,4.6,56,0.00,CLR,,0.00,WeatherDisplay:10.37,2013-03-27 15:23:00,
2013-03-27 10:28:00,44.3,29.6,30.38,West,277,3.5,3.5,56,0.00,CLR,,0.00,WeatherDisplay:10.37,2013-03-27 15:28:00,
2013-03-27 10:33:00,44.5,28.4,30.38,WSW,246,4.6,4.6,53,0.00,CLR,,0.00,WeatherDisplay:10.37,2013-03-27 15:33:00,
2013-03-27 10:38:00,44.6,29.0,30.38,WSW,249,4.0,4.0,54,0.00,CLR,,0.00,WeatherDisplay:10.37,2013-03-27 15:38:00,
2013-03-27 10:43:00,44.7,27.2,30.39,West,271,3.5,3.5,50,0.00,CLR,,0.00,WeatherDisplay:10.37,2013-03-27 15:43:00,
2013-03-27 10:48:00,44.3,26.8,30.39,North,355,3.5,3.5,50,0.00,CLR,,0.00,WeatherDisplay:10.37,2013-03-27 15:48:00,
2013-03-27 10:53:00,44.4,30.1,30.38,West,259,7.0,7.0,57,0.00,CLR,,0.00,WeatherDisplay:10.37,2013-03-27 15:53:00,
2013-03-27 10:58:00,44.7,27.7,30.38,NNW,346,3.5,3.5,51,0.00,CLR,,0.00,WeatherDisplay:10.37,2013-03-27 15:58:00,
2013-03-27 11:03:00,44.2,27.2,30.38,NNW,348,2.3,2.3,51,0.00,CLR,,0.00,WeatherDisplay:10.37,2013-03-27 16:03:00,
2013-03-27 11:08:00,43.9,26.9,30.38,NW,321,4.6,4.6,51,0.00,CLR,,0.00,WeatherDisplay:10.37,2013-03-27 16:08:00,
2013-03-27 11:13:00,43.6,26.2,30.38,North,360,2.3,2.3,50,0.00,CLR,,0.00,WeatherDisplay:10.37,2013-03-27 16:13:00,
2013-03-27 11:18:00,44.2,29.0,30.38,SW,219,1.1,0.0,55,0.00,CLR,,0.00,WeatherDisplay:10.37,2013-03-27 16:18:00,
2013-03-27 11:23:00,44.9,27.8,30.38,NW,321,4.6,4.6,51,0.00,CLR,,0.00,WeatherDisplay:10.37,2013-03-27 16:23:00,
2013-03-27 11:28:00,45.2,28.6,30.38,West,271,2.3,2.3,52,0.00,CLR,,0.00,WeatherDisplay:10.37,2013-03-27 16:28:00,
2013-03-27 11:33:00,45.5,28.4,30.38,South,176,2.3,2.3,51,0.00,CLR,,0.00,WeatherDisplay:10.37,2013-03-27 16:33:00,
2013-03-27 11:38:00,45.6,28.0,30.37,North,5,1.1,1.1,50,0.00,CLR,,0.00,WeatherDisplay:10.37,2013-03-27 16:38:00,
2013-03-27 11:43:00,46.0,30.7,30.37,WSW,257,4.6,4.6,55,0.00,CLR,,0.00,WeatherDisplay:10.37,2013-03-27 16:43:00,
2013-03-27 11:48:00,46.8,30.6,30.38,WNW,286,6.9,6.9,53,0.00,CLR,,0.00,WeatherDisplay:10.37,2013-03-27 16:48:00,
2013-03-27 11:53:00,46.6,29.4,30.37,WSW,252,11.5,11.5,51,0.00,CLR,,0.00,WeatherDisplay:10.37,2013-03-27 16:53:00,
2013-03-27 11:58:00,46.9,28.7,30.37,NW,305,10.4,10.4,49,0.00,CLR,,0.00,WeatherDisplay:10.37,2013-03-27 16:58:00,
2013-03-27 12:03:00,46.3,29.1,30.37,WSW,237,9.2,9.2,51,0.00,CLR,,0.00,WeatherDisplay:10.37,2013-03-27 17:03:00,
2013-03-27 12:08:00,46.8,29.6,30.37,NW,317,5.0,5.0,51,0.00,CLR,,0.00,WeatherDisplay:10.37,2013-03-27 17:08:00,
2013-03-27 12:13:00,47.1,28.9,30.38,NW,317,6.9,6.9,49,0.00,CLR,,0.00,WeatherDisplay:10.37,2013-03-27 17:13:00,
2013-03-27 12:18:00,47.6,28.9,30.37,WSW,257,6.9,6.9,48,0.00,CLR,,0.00,WeatherDisplay:10.37,2013-03-27 17:18:00,
2013-03-27 12:23:00,47.8,30.0,30.37,SW,217,5.0,5.0,50,0.00,CLR,,0.00,WeatherDisplay:10.37,2013-03-27 17:23:00,
2013-03-27 12:28:00,48.2,29.9,30.37,SSW,212,12.7,12.7,49,0.00,CLR,,0.00,WeatherDisplay:10.37,2013-03-27 17:28:00,
2013-03-27 12:33:00,48.0,27.6,30.37,WNW,286,9.2,9.2,45,0.00,CLR,,0.00,WeatherDisplay:10.37,2013-03-27 17:33:00,
2013-03-27 12:38:00,47.5,27.7,30.37,SW,223,3.5,3.5,46,0.00,CLR,,0.00,WeatherDisplay:10.37,2013-03-27 17:38:00,
2013-03-27 12:43:00,48.0,30.2,30.37,WSW,250,8.1,8.1,50,0.00,CLR,,0.00,WeatherDisplay:10.37,2013-03-27 17:43:00,
2013-03-27 12:48:00,48.4,29.6,30.37,West,267,4.6,4.6,48,0.00,CLR,,0.00,WeatherDisplay:10.37,2013-03-27 17:48:00,
2013-03-27 12:53:00,48.6,28.7,30.36,WSW,242,6.9,6.9,46,0.00,CLR,,0.00,WeatherDisplay:10.37,2013-03-27 17:53:00,
2013-03-27 12:58:00,49.0,30.7,30.36,NW,311,3.5,3.5,49,0.00,CLR,,0.00,WeatherDisplay:10.37,2013-03-27 17:58:00,
2013-03-27 13:03:00,48.7,30.4,30.36,WSW,256,5.8,5.8,49,0.00,CLR,,0.00,WeatherDisplay:10.37,2013-03-27 18:03:00,
2013-03-27 13:08:00,48.7,29.9,30.36,WNW,283,6.9,6.9,48,0.00,CLR,,0.00,WeatherDisplay:10.37,2013-03-27 18:08:00,
2013-03-27 13:13:00,48.6,30.8,30.36,WSW,251,8.1,8.1,50,0.00,CLR,,0.00,WeatherDisplay:10.37,2013-03-27 18:13:00,
2013-03-27 13:18:00,48.3,27.9,30.35,WNW,300,6.9,6.9,45,0.00,CLR,,0.00,WeatherDisplay:10.37,2013-03-27 18:18:00,
2013-03-27 13:24:00,48.3,31.5,30.35,WNW,283,3.5,3.5,52,0.00,CLR,,0.00,WeatherDisplay:10.37,2013-03-27 18:24:00,
2013-03-27 13:29:00,48.2,28.4,30.35,NW,314,6.9,6.9,46,0.00,CLR,,0.00,WeatherDisplay:10.37,2013-03-27 18:29:00,
2013-03-27 13:34:00,48.5,30.2,30.35,West,277,9.2,9.2,49,0.00,CLR,,0.00,WeatherDisplay:10.37,2013-03-27 18:34:00,
2013-03-27 13:39:00,49.2,31.3,30.35,SW,229,8.1,8.1,50,0.00,CLR,,0.00,WeatherDisplay:10.37,2013-03-27 18:39:00,
2013-03-27 13:44:00,49.7,31.8,30.35,West,265,6.0,6.0,50,0.00,CLR,,0.00,WeatherDisplay:10.37,2013-03-27 18:44:00,
2013-03-27 13:49:00,50.0,29.5,30.34,WSW,257,8.1,8.1,45,0.00,CLR,,0.00,WeatherDisplay:10.37,2013-03-27 18:49:00,
2013-03-27 13:54:00,50.1,31.2,30.34,West,277,5.0,5.0,48,0.00,CLR,,0.00,WeatherDisplay:10.37,2013-03-27 18:54:00,
2013-03-27 13:59:00,50.6,30.6,30.34,SW,225,6.9,6.9,46,0.00,CLR,,0.00,WeatherDisplay:10.37,2013-03-27 18:59:00,
2013-03-27 14:04:00,50.8,30.2,30.34,NW,307,3.5,3.5,45,0.00,CLR,,0.00,WeatherDisplay:10.37,2013-03-27 19:04:00,
2013-03-27 14:09:00,50.7,29.6,30.34,NW,318,5.8,5.8,44,0.00,CLR,,0.00,WeatherDisplay:10.37,2013-03-27 19:09:00,
2013-03-27 14:14:00,50.8,30.7,30.34,WSW,237,8.0,8.0,46,0.00,CLR,,0.00,WeatherDisplay:10.37,2013-03-27 19:14:00,
2013-03-27 14:19:00,50.6,30.6,30.34,NW,318,6.9,6.9,46,0.00,CLR,,0.00,WeatherDisplay:10.37,2013-03-27 19:19:00,
2013-03-27 14:24:00,50.9,30.3,30.34,WNW,293,4.6,4.6,45,0.00,CLR,,0.00,WeatherDisplay:10.37,2013-03-27 19:24:00,
2013-03-27 14:29:00,51.1,30.5,30.33,NW,322,8.1,8.1,45,0.00,CLR,,0.00,WeatherDisplay:10.37,2013-03-27 19:29:00,
2013-03-27 14:34:00,50.9,30.8,30.33,WSW,241,5.8,6.0,46,0.00,CLR,,0.00,WeatherDisplay:10.37,2013-03-27 19:34:00,
2013-03-27 14:39:00,51.3,32.3,30.33,West,265,3.5,3.5,48,0.00,CLR,,0.00,WeatherDisplay:10.37,2013-03-27 19:39:00,
2013-03-27 14:44:00,51.2,30.0,30.33,WNW,303,3.5,3.5,44,0.00,CLR,,0.00,WeatherDisplay:10.37,2013-03-27 19:44:00,
2013-03-27 14:49:00,50.9,30.3,30.33,WSW,252,6.9,6.9,45,0.00,CLR,,0.00,WeatherDisplay:10.37,2013-03-27 19:49:00,
2013-03-27 14:54:00,51.2,30.6,30.33,West,265,11.5,11.5,45,0.00,CLR,,0.00,WeatherDisplay:10.37,2013-03-27 19:54:00,
2013-03-27 14:59:00,50.8,27.3,30.33,NNW,340,8.1,8.1,40,0.00,CLR,,0.00,WeatherDisplay:10.37,2013-03-27 19:59:00,
2013-03-27 15:04:00,50.4,29.3,30.32,SW,236,10.4,10.4,44,0.00,CLR,,0.00,WeatherDisplay:10.37,2013-03-27 20:04:00,
2013-03-27 15:09:00,50.1,28.4,30.32,NW,307,1.1,1.1,43,0.00,CLR,,0.00,WeatherDisplay:10.37,2013-03-27 20:09:00,
2013-03-27 15:14:00,50.1,29.6,30.32,West,279,3.5,3.5,45,0.00,CLR,,0.00,WeatherDisplay:10.37,2013-03-27 20:14:00,
2013-03-27 15:19:00,50.2,29.1,30.32,SW,227,10.4,10.4,44,0.00,CLR,,0.00,WeatherDisplay:10.37,2013-03-27 20:19:00,
2013-03-27 15:24:00,50.3,29.2,30.32,SW,219,8.1,8.1,44,0.00,CLR,,0.00,WeatherDisplay:10.37,2013-03-27 20:24:00,
2013-03-27 15:29:00,50.4,28.7,30.32,WNW,286,5.8,5.8,43,0.00,CLR,,0.00,WeatherDisplay:10.37,2013-03-27 20:29:00,
2013-03-27 15:34:00,50.2,29.7,30.32,West,276,10.4,10.4,45,0.00,CLR,,0.00,WeatherDisplay:10.37,2013-03-27 20:34:00,
2013-03-27 15:39:00,50.0,30.5,30.31,West,275,6.9,6.9,47,0.00,CLR,,0.00,WeatherDisplay:10.37,2013-03-27 20:39:00,
2013-03-27 15:44:00,49.8,29.8,30.31,West,272,8.1,8.1,46,0.00,CLR,,0.00,WeatherDisplay:10.37,2013-03-27 20:44:00,
2013-03-27 15:49:00,50.0,29.5,30.31,SSW,212,1.1,0.0,45,0.00,CLR,,0.00,WeatherDisplay:10.37,2013-03-27 20:49:00,
2013-03-27 15:54:00,49.8,28.7,30.31,NW,313,3.5,3.5,44,0.00,CLR,,0.00,WeatherDisplay:10.37,2013-03-27 20:54:00,
2013-03-27 15:59:00,49.0,28.0,30.31,WNW,291,4.0,4.0,44,0.00,CLR,,0.00,WeatherDisplay:10.37,2013-03-27 20:59:00,
2013-03-27 16:04:00,48.9,30.1,30.31,WNW,300,2.3,2.3,48,0.00,CLR,,0.00,WeatherDisplay:10.37,2013-03-27 21:04:00,
2013-03-27 16:09:00,48.8,27.8,30.31,NW,306,5.8,5.8,44,0.00,CLR,,0.00,WeatherDisplay:10.37,2013-03-27 21:09:00,
2013-03-27 16:14:00,48.8,27.8,30.30,NW,321,5.8,5.8,44,0.00,CLR,,0.00,WeatherDisplay:10.37,2013-03-27 21:14:00,
2013-03-27 16:19:00,48.9,27.9,30.30,NW,323,3.5,3.5,44,0.00,CLR,,0.00,WeatherDisplay:10.37,2013-03-27 21:19:00,
2013-03-27 16:24:00,49.2,29.8,30.30,West,281,5.8,5.8,47,0.00,CLR,,0.00,WeatherDisplay:10.37,2013-03-27 21:24:00,
2013-03-27 16:29:00,49.3,28.8,30.30,NNW,328,5.8,5.8,45,0.00,CLR,,0.00,WeatherDisplay:10.37,2013-03-27 21:29:00,
2013-03-27 16:34:00,48.9,27.9,30.30,North,349,2.3,2.3,44,0.00,CLR,,0.00,WeatherDisplay:10.37,2013-03-27 21:34:00,
2013-03-27 16:39:00,48.7,29.9,30.30,WNW,288,3.0,3.0,48,0.00,CLR,,0.00,WeatherDisplay:10.37,2013-03-27 21:39:00,
2013-03-27 16:44:00,48.5,28.1,30.30,WSW,253,3.5,3.5,45,0.00,CLR,,0.00,WeatherDisplay:10.37,2013-03-27 21:44:00,
2013-03-27 16:49:00,48.6,30.3,30.30,WNW,286,3.5,3.5,49,0.00,CLR,,0.00,WeatherDisplay:10.37,2013-03-27 21:49:00,
2013-03-27 16:54:00,48.7,29.4,30.30,West,271,5.8,5.8,47,0.00,CLR,,0.00,WeatherDisplay:10.37,2013-03-27 21:54:00,
2013-03-27 16:59:00,48.8,29.4,30.29,West,271,3.5,3.5,47,0.00,CLR,,0.00,WeatherDisplay:10.37,2013-03-27 21:59:00,
2013-03-27 17:04:00,48.7,28.3,30.29,NW,323,2.3,2.3,45,0.00,CLR,,0.00,WeatherDisplay:10.37,2013-03-27 22:04:00,
2013-03-27 17:09:00,48.5,28.6,30.29,WNW,294,3.5,3.5,46,0.00,CLR,,0.00,WeatherDisplay:10.37,2013-03-27 22:09:00,
2013-03-27 17:14:00,48.6,28.2,30.29,WNW,290,0.0,0.0,45,0.00,CLR,,0.00,WeatherDisplay:10.37,2013-03-27 22:14:00,
2013-03-27 17:19:00,48.6,28.2,30.29,WNW,290,0.0,0.0,45,0.00,CLR,,0.00,WeatherDisplay:10.37,2013-03-27 22:19:00,
2013-03-27 17:24:00,48.8,29.4,30.29,WNW,290,0.0,0.0,47,0.00,CLR,,0.00,WeatherDisplay:10.37,2013-03-27 22:24:00,
2013-03-27 17:29:00,49.0,28.6,30.29,WNW,290,0.0,0.0,45,0.00,CLR,,0.00,WeatherDisplay:10.37,2013-03-27 22:29:00,
2013-03-27 17:34:00,49.3,28.8,30.29,WSW,256,1.0,1.0,45,0.00,CLR,,0.00,WeatherDisplay:10.37,2013-03-27 22:34:00,
2013-03-27 17:39:00,49.4,28.9,30.29,West,274,2.3,2.3,45,0.00,CLR,,0.00,WeatherDisplay:10.37,2013-03-27 22:39:00,
2013-03-27 17:44:00,49.1,29.7,30.29,West,269,3.5,3.5,47,0.00,CLR,,0.00,WeatherDisplay:10.37,2013-03-27 22:44:00,
2013-03-27 17:49:00,48.9,28.5,30.29,West,271,1.1,0.0,45,0.00,CLR,,0.00,WeatherDisplay:10.37,2013-03-27 22:49:00,
2013-03-27 17:54:00,48.8,28.4,30.29,West,271,0.0,0.0,45,0.00,CLR,,0.00,WeatherDisplay:10.37,2013-03-27 22:54:00,
2013-03-27 17:59:00,48.7,27.7,30.29,West,271,0.0,0.0,44,0.00,CLR,,0.00,WeatherDisplay:10.37,2013-03-27 22:59:00,
2013-03-27 18:04:00,48.6,28.2,30.29,West,271,0.0,0.0,45,0.00,CLR,,0.00,WeatherDisplay:10.37,2013-03-27 23:04:00,
2013-03-27 18:09:00,48.6,28.2,30.29,West,271,0.0,0.0,45,0.00,CLR,,0.00,WeatherDisplay:10.37,2013-03-27 23:09:00,
2013-03-27 18:14:00,48.5,27.6,30.29,West,271,0.0,0.0,44,0.00,CLR,,0.00,WeatherDisplay:10.37,2013-03-27 23:14:00,
2013-03-27 18:19:00,48.5,28.6,30.28,West,271,0.0,0.0,46,0.00,CLR,,0.00,WeatherDisplay:10.37,2013-03-27 23:19:00,
2013-03-27 18:24:00,48.5,28.1,30.28,West,271,0.0,0.0,45,0.00,CLR,,0.00,WeatherDisplay:10.37,2013-03-27 23:24:00,
2013-03-27 18:30:00,48.4,29.1,30.28,West,271,0.0,0.0,47,0.00,CLR,,0.00,WeatherDisplay:10.37,2013-03-27 23:30:00,
2013-03-27 18:35:00,48.3,29.0,30.28,West,271,0.0,0.0,47,0.00,CLR,,0.00,WeatherDisplay:10.37,2013-03-27 23:35:00,
2013-03-27 18:40:00,48.2,29.9,30.29,West,271,0.0,0.1,49,0.00,CLR,,0.00,WeatherDisplay:10.37,2013-03-27 23:40:00,
2013-03-27 18:45:00,47.9,28.1,30.28,West,271,0.0,0.0,46,0.00,CLR,,0.00,WeatherDisplay:10.37,2013-03-27 23:45:00,
2013-03-27 18:50:00,47.8,28.5,30.28,West,271,0.0,0.0,47,0.00,CLR,,0.00,WeatherDisplay:10.37,2013-03-27 23:50:00,
2013-03-27 18:55:00,47.7,28.4,30.28,West,271,0.0,0.0,47,0.00,CLR,,0.00,WeatherDisplay:10.37,2013-03-27 23:55:00,
2013-03-27 19:00:00,47.6,28.3,30.29,West,271,0.0,0.0,47,0.00,CLR,,0.00,WeatherDisplay:10.37,2013-03-28 00:00:00,
2013-03-27 19:05:00,47.4,28.2,30.28,West,271,0.0,0.0,47,0.00,CLR,,0.00,WeatherDisplay:10.37,2013-03-28 00:05:00,
2013-03-27 19:10:00,47.3,28.6,30.28,West,271,0.0,0.0,48,0.00,CLR,,0.00,WeatherDisplay:10.37,2013-03-28 00:10:00,
2013-03-27 19:15:00,47.1,28.9,30.28,West,271,0.0,0.0,49,0.00,CLR,,0.00,WeatherDisplay:10.37,2013-03-28 00:15:00,
2013-03-27 19:20:00,47.0,29.3,30.28,West,271,0.0,0.0,50,0.00,CLR,,0.00,WeatherDisplay:10.37,2013-03-28 00:20:00,
2013-03-27 19:25:00,46.7,29.0,30.28,West,271,0.0,0.0,50,0.00,CLR,,0.00,WeatherDisplay:10.37,2013-03-28 00:25:00,
2013-03-27 19:30:00,46.5,29.8,30.28,West,271,0.0,0.0,52,0.00,CLR,,0.00,WeatherDisplay:10.37,2013-03-28 00:30:00,
2013-03-27 19:35:00,46.3,30.1,30.28,West,271,0.0,0.0,53,0.00,CLR,,0.00,WeatherDisplay:10.37,2013-03-28 00:35:00,
2013-03-27 19:40:00,46.0,29.8,30.28,West,271,0.0,0.0,53,0.00,CLR,,0.00,WeatherDisplay:10.37,2013-03-28 00:40:00,
2013-03-27 19:45:00,45.8,29.6,30.28,West,271,0.0,0.0,53,0.00,CLR,,0.00,WeatherDisplay:10.37,2013-03-28 00:45:00,
2013-03-27 19:50:00,45.6,29.9,30.28,West,271,0.0,0.0,54,0.00,CLR,,0.00,WeatherDisplay:10.37,2013-03-28 00:50:00,
2013-03-27 19:55:00,45.5,30.3,30.28,West,271,0.0,0.0,55,0.00,CLR,,0.00,WeatherDisplay:10.37,2013-03-28 00:55:00,
2013-03-27 20:00:00,45.3,30.5,30.28,West,271,0.0,0.0,56,0.00,CLR,,0.00,WeatherDisplay:10.37,2013-03-28 01:00:00,
2013-03-27 20:05:00,45.1,29.9,30.28,West,271,0.0,0.0,55,0.00,CLR,,0.00,WeatherDisplay:10.37,2013-03-28 01:05:00,
2013-03-27 20:10:00,45.0,30.2,30.28,West,271,0.0,0.0,56,0.00,CLR,,0.00,WeatherDisplay:10.37,2013-03-28 01:10:00,
2013-03-27 20:15:00,44.8,30.0,30.27,West,271,0.0,0.0,56,0.00,CLR,,0.00,WeatherDisplay:10.37,2013-03-28 01:15:00,
2013-03-27 20:20:00,44.7,30.8,30.28,West,271,0.0,0.0,58,0.00,CLR,,0.00,WeatherDisplay:10.37,2013-03-28 01:20:00,
2013-03-27 20:25:00,44.6,30.7,30.28,West,271,0.0,0.0,58,0.00,CLR,,0.00,WeatherDisplay:10.37,2013-03-28 01:25:00,
2013-03-27 20:30:00,44.4,31.0,30.28,West,271,0.0,0.0,59,0.00,CLR,,0.00,WeatherDisplay:10.37,2013-03-28 01:30:00,
2013-03-27 20:35:00,44.3,31.3,30.28,West,271,0.0,0.0,60,0.00,CLR,,0.00,WeatherDisplay:10.37,2013-03-28 01:35:00,
2013-03-27 20:40:00,44.2,31.2,30.27,West,271,0.0,0.0,60,0.00,CLR,,0.00,WeatherDisplay:10.37,2013-03-28 01:40:00,
2013-03-27 20:45:00,44.0,30.6,30.27,West,271,0.0,0.0,59,0.00,CLR,,0.00,WeatherDisplay:10.37,2013-03-28 01:45:00,
2013-03-27 20:50:00,43.8,30.4,30.28,West,271,0.0,0.0,59,0.00,CLR,,0.00,WeatherDisplay:10.37,2013-03-28 01:50:00,
2013-03-27 20:55:00,43.7,29.9,30.28,West,271,0.0,0.0,58,0.00,CLR,,0.00,WeatherDisplay:10.37,2013-03-28 01:55:00,
2013-03-27 21:00:00,43.7,29.9,30.28,West,271,0.0,0.0,58,0.00,CLR,,0.00,WeatherDisplay:10.37,2013-03-28 02:00:00,
2013-03-27 21:05:00,43.8,30.0,30.28,West,271,0.0,0.0,58,0.00,CLR,,0.00,WeatherDisplay:10.37,2013-03-28 02:05:00,
2013-03-27 21:10:00,43.9,30.1,30.28,West,271,0.0,0.0,58,0.00,CLR,,0.00,WeatherDisplay:10.37,2013-03-28 02:10:00,
2013-03-27 21:15:00,43.9,30.5,30.28,West,271,0.0,0.0,59,0.00,CLR,,0.00,WeatherDisplay:10.37,2013-03-28 02:15:00,
2013-03-27 21:20:00,43.9,30.9,30.28,West,271,0.0,0.0,60,0.00,CLR,,0.00,WeatherDisplay:10.37,2013-03-28 02:20:00,
2013-03-27 21:25:00,43.7,30.3,30.28,ESE,115,1.1,1.1,59,0.00,CLR,,0.00,WeatherDisplay:10.37,2013-03-28 02:25:00,
2013-03-27 21:30:00,43.7,29.9,30.28,ESE,115,0.0,0.0,58,0.00,CLR,,0.00,WeatherDisplay:10.37,2013-03-28 02:30:00,
2013-03-27 21:35:00,43.7,30.3,30.28,ESE,115,0.0,0.0,59,0.00,CLR,,0.00,WeatherDisplay:10.37,2013-03-28 02:35:00,
2013-03-27 21:40:00,43.6,30.6,30.28,ESE,115,0.0,0.0,60,0.00,CLR,,0.00,WeatherDisplay:10.37,2013-03-28 02:40:00,
2013-03-27 21:45:00,43.5,30.5,30.28,ESE,114,1.1,0.0,60,0.00,CLR,,0.00,WeatherDisplay:10.37,2013-03-28 02:45:00,
2013-03-27 21:50:00,43.4,30.8,30.28,East,94,0.0,0.0,61,0.00,CLR,,0.00,WeatherDisplay:10.37,2013-03-28 02:50:00,
2013-03-27 21:55:00,43.3,30.3,30.28,East,94,0.0,0.0,60,0.00,CLR,,0.00,WeatherDisplay:10.37,2013-03-28 02:55:00,
2013-03-27 22:00:00,43.2,30.2,30.28,East,94,0.0,0.0,60,0.00,CLR,,0.00,WeatherDisplay:10.37,2013-03-28 03:00:00,
2013-03-27 22:05:00,43.2,30.2,30.28,East,94,0.0,0.0,60,0.00,CLR,,0.00,WeatherDisplay:10.37,2013-03-28 03:05:00,
2013-03-27 22:10:00,43.2,30.6,30.28,East,94,0.0,0.0,61,0.00,CLR,,0.00,WeatherDisplay:10.37,2013-03-28 03:10:00,
2013-03-27 22:15:00,43.1,30.6,30.28,East,94,0.0,0.0,61,0.00,CLR,,0.00,WeatherDisplay:10.37,2013-03-28 03:15:00,
2013-03-27 22:20:00,43.0,30.1,30.29,East,94,0.0,0.0,60,0.00,CLR,,0.00,WeatherDisplay:10.37,2013-03-28 03:20:00,
2013-03-27 22:25:00,42.9,31.9,30.29,East,94,0.0,0.0,65,0.00,CLR,,0.00,WeatherDisplay:10.37,2013-03-28 03:25:00,
2013-03-27 22:30:00,42.7,30.2,30.29,East,94,0.0,0.0,61,0.00,CLR,,0.00,WeatherDisplay:10.37,2013-03-28 03:30:00,
2013-03-27 22:35:00,42.5,29.6,30.29,East,94,0.0,0.0,60,0.00,CLR,,0.00,WeatherDisplay:10.37,2013-03-28 03:35:00,
2013-03-27 22:40:00,42.5,29.2,30.29,East,94,0.0,0.0,59,0.00,CLR,,0.00,WeatherDisplay:10.37,2013-03-28 03:40:00,
2013-03-27 22:45:00,42.5,29.6,30.30,East,94,0.0,0.0,60,0.00,CLR,,0.00,WeatherDisplay:10.37,2013-03-28 03:45:00,
2013-03-27 22:50:00,42.5,29.6,30.30,East,94,0.0,0.0,60,0.00,CLR,,0.00,WeatherDisplay:10.37,2013-03-28 03:50:00,
2013-03-27 22:55:00,42.4,30.3,30.30,East,94,0.0,0.0,62,0.00,CLR,,0.00,WeatherDisplay:10.37,2013-03-28 03:55:00,
2013-03-27 23:00:00,42.3,29.8,30.29,East,94,0.0,0.0,61,0.00,CLR,,0.00,WeatherDisplay:10.37,2013-03-28 04:00:00,
2013-03-27 23:05:00,42.4,29.1,30.29,East,94,0.0,0.0,59,0.00,CLR,,0.00,WeatherDisplay:10.37,2013-03-28 04:05:00,
2013-03-27 23:10:00,42.6,30.1,30.29,East,96,2.3,2.3,61,0.00,CLR,,0.00,WeatherDisplay:10.37,2013-03-28 04:10:00,
2013-03-27 23:15:00,42.7,31.7,30.29,East,97,0.0,0.0,65,0.00,CLR,,0.00,WeatherDisplay:10.37,2013-03-28 04:15:00,
2013-03-27 23:20:00,42.5,31.6,30.29,East,97,0.0,0.0,65,0.00,CLR,,0.00,WeatherDisplay:10.37,2013-03-28 04:20:00,
2013-03-27 23:25:00,42.4,31.1,30.29,East,97,0.0,0.0,64,0.00,CLR,,0.00,WeatherDisplay:10.37,2013-03-28 04:25:00,
2013-03-27 23:30:00,42.3,31.4,30.29,East,97,0.0,0.0,65,0.00,CLR,,0.00,WeatherDisplay:10.37,2013-03-28 04:30:00,
2013-03-27 23:35:00,42.2,30.9,30.28,East,97,1.1,0.0,64,0.00,CLR,,0.00,WeatherDisplay:10.37,2013-03-28 04:35:00,
2013-03-27 23:40:00,42.2,30.5,30.28,East,97,0.0,0.0,63,0.00,CLR,,0.00,WeatherDisplay:10.37,2013-03-28 04:40:00,
2013-03-27 23:45:00,42.2,30.1,30.28,East,97,0.0,0.0,62,0.00,CLR,,0.00,WeatherDisplay:10.37,2013-03-28 04:45:00,
2013-03-27 23:50:00,42.3,30.6,30.28,East,97,0.0,0.0,63,0.00,CLR,,0.00,WeatherDisplay:10.37,2013-03-28 04:50:00,
2013-03-27 23:55:00,42.2,30.1,30.28,East,97,0.0,0.0,62,0.00,CLR,,0.00,WeatherDisplay:10.37,2013-03-28 04:55:00,